| time (UTC) | temp C | wind direction | speed KPH | gust KPH | rain 1hr cm | rain 24hr cm | rain mn cm | humidity % | barometer mb |
| 20260831114503 | 5 | 219 | 0.0 | 3.2 | 0.05 | 0.33 | 0.20 | 96 | 1005.5 |
| 20260831113056 | 5 | 238 | 1.6 | 4.8 | 0.08 | 0.30 | 0.18 | 96 | 1005.6 |
| 20260831111555 | 5 | 238 | 0.0 | 6.4 | 0.10 | 0.30 | 0.18 | 96 | 1005.8 |
| 20260831110040 | 6 | 254 | 1.6 | 4.8 | 0.08 | 0.28 | 0.15 | 96 | 1006.0 |
| 20260831104557 | 6 | 219 | 3.2 | 6.4 | 0.10 | 0.28 | 0.15 | 96 | 1006.0 |
| 20260831103053 | 6 | 197 | 3.2 | 8.0 | 0.05 | 0.23 | 0.10 | 95 | 1006.3 |
| 20260831101507 | 6 | 226 | 1.6 | 6.4 | 0.03 | 0.20 | 0.08 | 95 | 1006.3 |
| 20260831100106 | 6 | 196 | 0.0 | 6.4 | 0.05 | 0.20 | 0.08 | 94 | 1006.5 |
| 20260831094610 | 6 | 162 | 0.0 | 4.8 | 0.03 | 0.18 | 0.05 | 94 | 1006.8 |
| 20260831093001 | 6 | 197 | 0.0 | 3.2 | 0.03 | 0.18 | 0.05 | 93 | 1006.9 |
| 20260831091612 | 6 | 143 | 0.0 | 3.2 | 0.05 | 0.18 | 0.05 | 92 | 1007.0 |
| 20260831090052 | 6 | 154 | 0.0 | 1.6 | 0.03 | 0.15 | 0.03 | 91 | 1007.1 |
| 20260831084505 | 6 | 238 | 0.0 | 1.6 | 0.05 | 0.15 | 0.03 | 92 | 1007.2 |
| 20260831083100 | 6 | 98 | 0.0 | 1.6 | 0.08 | 0.15 | 0.03 | 91 | 1007.4 |
| 20260831081555 | 7 | 148 | 0.0 | 1.6 | 0.05 | 0.13 | 0.00 | 88 | 1007.6 |
| 20260831080044 | 7 | 146 | 0.0 | 0.0 | 0.08 | 0.13 | 0.00 | 91 | 1007.7 |
| 20260831074559 | 7 | 259 | 0.0 | 8.0 | 0.08 | 0.10 | 0.10 | 86 | 1007.9 |
| 20260831073051 | 7 | 229 | 1.6 | 3.2 | 0.08 | 0.08 | 0.08 | 88 | 1007.9 |
| 20260831071604 | 7 | 339 | 0.0 | 0.0 | 0.08 | 0.08 | 0.08 | 81 | 1008.0 |
| 20260831064553 | 8 | 148 | 3.2 | 8.0 | 0.03 | 0.03 | 0.03 | 75 | 1008.2 |
| 20260831063041 | 10 | 116 | 6.4 | 17.7 | 0.00 | 0.00 | 0.00 | 67 | 1008.1 |
| 20260831061559 | 8 | 228 | 0.0 | 6.4 | 0.00 | 0.00 | 0.00 | 69 | 1008.0 |
| 20260831054547 | 8 | 129 | 0.0 | 0.0 | 0.00 | 0.00 | 0.00 | 72 | 1008.3 |
| 20260831053101 | 8 | 129 | 0.0 | 0.0 | 0.00 | 0.00 | 0.00 | 72 | 1008.4 |
| 20260831051602 | 8 | 129 | 0.0 | 0.0 | 0.00 | 0.00 | 0.00 | 72 | 1008.5 |
| 20260831050046 | 8 | 225 | 0.0 | 1.6 | 0.00 | 0.00 | 0.00 | 72 | 1008.7 |
| 20260831044600 | 10 | 224 | 0.0 | 0.0 | 0.00 | 0.00 | 0.00 | 64 | 1008.7 |
| 20260831043051 | 10 | 224 | 0.0 | 1.6 | 0.00 | 0.00 | 0.00 | 70 | 1008.9 |
| 20260831041548 | 10 | 224 | 0.0 | 0.0 | 0.00 | 0.00 | 0.00 | 65 | 1009.2 |
| 20260831040002 | 10 | 224 | 0.0 | 0.0 | 0.00 | 0.00 | 0.00 | 64 | 1009.3 |
| 20260831034514 | 11 | 224 | 0.0 | 0.0 | 0.00 | 0.00 | 0.00 | 70 | 1009.6 |
| 20260831033055 | 11 | 224 | 0.0 | 0.0 | 0.00 | 0.00 | 0.00 | 61 | 1009.7 |
| 20260831031544 | 12 | 224 | 0.0 | 0.0 | 0.00 | 0.00 | 0.00 | 58 | 1010.1 |
| 20260831030058 | 12 | 224 | 0.0 | 0.0 | 0.00 | 0.00 | 0.00 | 54 | 1010.2 |
| 20260831024557 | 12 | 224 | 0.0 | 1.6 | 0.00 | 0.00 | 0.00 | 50 | 1010.4 |
| 20260831023044 | 13 | 238 | 0.0 | 3.2 | 0.00 | 0.00 | 0.00 | 50 | 1010.5 |
| 20260831021557 | 13 | 252 | 0.0 | 3.2 | 0.00 | 0.00 | 0.00 | 51 | 1010.8 |
| 20260831020109 | 13 | 238 | 1.6 | 4.8 | 0.00 | 0.00 | 0.00 | 50 | 1010.9 |
| 20260831014545 | 13 | 239 | 0.0 | 4.8 | 0.00 | 0.00 | 0.00 | 48 | 1011.1 |
| 20260831013100 | 13 | 218 | 1.6 | 8.0 | 0.00 | 0.00 | 0.00 | 47 | 1011.3 |
| 20260831011604 | 13 | 201 | 1.6 | 6.4 | 0.00 | 0.00 | 0.00 | 46 | 1011.4 |
| 20260831010043 | 14 | 188 | 1.6 | 6.4 | 0.00 | 0.00 | 0.00 | 47 | 1011.7 |
| 20260831004501 | 14 | 81 | 1.6 | 8.0 | 0.00 | 0.00 | 0.00 | 46 | 1012.1 |
| 20260831003052 | 14 | 258 | 3.2 | 6.4 | 0.00 | 0.00 | 0.00 | 47 | 1012.1 |
| 20260831001548 | 15 | 238 | 3.2 | 8.0 | 0.00 | 0.00 | 0.00 | 48 | 1012.5 |
| 20260831000042 | 14 | 120 | 0.0 | 8.0 | 0.00 | 0.00 | 0.00 | 47 | 1012.6 |
| 20260830234607 | 14 | 191 | 4.8 | 9.7 | 0.00 | 0.00 | 0.00 | 46 | 1012.9 |
| 20260830233046 | 14 | 199 | 4.8 | 9.7 | 0.00 | 0.00 | 0.00 | 46 | 1013.2 |
| 20260830231506 | 14 | 258 | 3.2 | 11.3 | 0.00 | 0.00 | 0.00 | 45 | 1013.2 |
| 20260830230053 | 13 | 288 | 0.0 | 4.8 | 0.00 | 0.00 | 0.00 | 49 | 1013.6 |
| 20260830224603 | 13 | 272 | 4.8 | 8.0 | 0.00 | 0.00 | 0.00 | 46 | 1013.6 |
| 20260830223001 | 14 | 285 | 4.8 | 9.7 | 0.00 | 0.00 | 0.00 | 47 | 1013.8 |
| 20260830221557 | 14 | 167 | 3.2 | 8.0 | 0.00 | 0.00 | 0.00 | 45 | 1014.0 |
| 20260830214559 | 14 | 233 | 0.0 | 6.4 | 0.00 | 0.00 | 0.00 | 46 | 1014.5 |
| 20260830213055 | 14 | 293 | 1.6 | 8.0 | 0.00 | 0.00 | 0.00 | 46 | 1014.5 |
| 20260830211555 | 13 | 32 | 1.6 | 9.7 | 0.00 | 0.00 | 0.00 | 47 | 1014.8 |
| 20260830204600 | 13 | 5 | 3.2 | 9.7 | 0.00 | 0.00 | 0.00 | 48 | 1015.1 |
| 20260830203053 | 13 | 41 | 1.6 | 6.4 | 0.00 | 0.00 | 0.00 | 50 | 1015.3 |
| 20260830201603 | 13 | 200 | 1.6 | 8.0 | 0.00 | 0.00 | 0.00 | 52 | 1015.5 |
| 20260830200052 | 12 | 53 | 3.2 | 9.7 | 0.00 | 0.00 | 0.00 | 52 | 1015.8 |
| 20260830194549 | 12 | 316 | 1.6 | 8.0 | 0.00 | 0.00 | 0.00 | 55 | 1016.1 |
| 20260830193058 | 12 | 40 | 3.2 | 6.4 | 0.00 | 0.00 | 0.00 | 56 | 1016.2 |
| 20260830191556 | 11 | 65 | 1.6 | 8.0 | 0.00 | 0.00 | 0.00 | 59 | 1016.5 |
| 20260830190050 | 11 | 326 | 0.0 | 6.4 | 0.00 | 0.00 | 0.00 | 61 | 1016.7 |
| 20260830184504 | 10 | 120 | 0.0 | 3.2 | 0.00 | 0.00 | 0.00 | 64 | 1017.0 |
| 20260830183058 | 9 | 93 | 3.2 | 6.4 | 0.00 | 0.00 | 0.00 | 66 | 1017.0 |
| 20260830181552 | 9 | 148 | 1.6 | 4.8 | 0.00 | 0.00 | 0.00 | 69 | 1017.1 |
| 20260830180006 | 8 | 169 | 0.0 | 3.2 | 0.00 | 0.00 | 0.00 | 69 | 1017.3 |
| 20260830174605 | 7 | 130 | 0.0 | 3.2 | 0.00 | 0.00 | 0.00 | 71 | 1017.3 |
| 20260830173051 | 6 | 79 | 1.6 | 3.2 | 0.00 | 0.00 | 0.00 | 74 | 1017.3 |
| 20260830171604 | 6 | 117 | 0.0 | 3.2 | 0.00 | 0.00 | 0.00 | 77 | 1017.3 |
| 20260830170056 | 6 | 231 | 0.0 | 1.6 | 0.00 | 0.00 | 0.00 | 75 | 1017.5 |
| 20260830164550 | 4 | 149 | 0.0 | 4.8 | 0.00 | 0.05 | 0.00 | 81 | 1017.6 |
| 20260830163044 | 4 | 104 | 1.6 | 4.8 | 0.00 | 0.05 | 0.00 | 80 | 1017.7 |
| 20260830161612 | 3 | 78 | 0.0 | 3.2 | 0.00 | 0.05 | 0.00 | 81 | 1017.6 |
| 20260830160046 | 3 | 113 | 0.0 | 1.6 | 0.00 | 0.05 | 0.00 | 84 | 1017.7 |
| 20260830154504 | 2 | 254 | 0.0 | 1.6 | 0.00 | 0.10 | 0.00 | 86 | 1017.8 |
| 20260830153100 | 1 | 254 | 0.0 | 0.0 | 0.00 | 0.10 | 0.00 | 90 | 1017.7 |
| 20260830151548 | 0 | 254 | 0.0 | 0.0 | 0.00 | 0.10 | 0.00 | 91 | 1017.5 |
| 20260830150059 | -1 | 254 | 0.0 | 0.0 | 0.00 | 0.10 | 0.00 | 93 | 1017.6 |
| 20260830144618 | -1 | 254 | 0.0 | 0.0 | 0.00 | 0.15 | 0.00 | 92 | 1017.4 |
| 20260830143053 | -1 | 254 | 0.0 | 3.2 | 0.00 | 0.15 | 0.00 | 91 | 1017.5 |
| 20260830141502 | 0 | 254 | 0.0 | 1.6 | 0.00 | 0.15 | 0.00 | 90 | 1017.3 |
| 20260830140046 | 0 | 252 | 0.0 | 1.6 | 0.00 | 0.15 | 0.00 | 89 | 1017.2 |
| 20260830134600 | 0 | 252 | 0.0 | 0.0 | 0.00 | 0.18 | 0.00 | 90 | 1017.0 |
| 20260830133052 | 0 | 252 | 0.0 | 0.0 | 0.00 | 0.18 | 0.00 | 91 | 1016.9 |
| 20260830131507 | 0 | 252 | 0.0 | 0.0 | 0.00 | 0.18 | 0.00 | 89 | 1017.0 |
| 20260830130110 | 1 | 252 | 0.0 | 1.6 | 0.00 | 0.18 | 0.00 | 89 | 1016.8 |
| 20260830124508 | 2 | 334 | 0.0 | 0.0 | 0.00 | 0.18 | 0.00 | 87 | 1016.5 |
| 20260830123056 | 2 | 335 | 0.0 | 3.2 | 0.00 | 0.18 | 0.00 | 85 | 1016.5 |
| 20260830121553 | 3 | 335 | 1.6 | 8.0 | 0.00 | 0.18 | 0.00 | 85 | 1016.3 |
| 20260830120049 | 3 | 11 | 0.0 | 4.8 | 0.00 | 0.18 | 0.00 | 85 | 1016.1 |